Find Starlink 32491

NORAD ID: 62043 Int'l Des: 2024-216 Owner: SPXS Country: US Constellation: starlink operational
LEOCIRCULAR

Live Position

Loading 3D Globe...

About Starlink 32491

Description loading...

Upcoming Passes

Passes for default location (London). Set your location on the main map for personalized predictions.

Altitude History

Loading altitude history...

Two-Line Element Set

1 62043U 24216M 26110.17412956 .00012366 00000-0 45817-3 0 9991
2 62043 43.0038 29.5210 0001525 254.4397 105.6286 15.27577283 80138
Epoch: Apr 20, 2026 • Age: 14 hours

Current Status

Altitude 487.7 km
Velocity 7.62 km/s
Sub-Earth Point -21.86°S, 120.33°W
Launch Date Nov 21, 2024
Age 1.4 years
Type internet

Technical Details

Classification Payload
Mass 730.00 kg
Dry Mass 700.00 kg
Total Mass 730.00 kg
Length 0.30 m
Diameter 4.10 m
Span 29.00 m
Shape Box + pan
Manufacturer SPXS
Bus Type Starlink V2M
Phase Status In Orbit
Owner/State SPXS/US

Most Searched